Bay City, TX

11:42 AM CST on January 24, 2017 (GMT -0600)
Bay City

Weather History for KBYY - November, 2011

Change the Weather History Date:

Friday, November 4, 2011

  Actual Average (KLBX) Record (KLBX)
Temperature  
Mean Temperature 52 °F -  
Max Temperature 69 °F 73 °F 86 °F (2003)
Min Temperature 35 °F 55 °F 33 °F (2011)
Degree Days  
Heating Degree Days 13    
Growing Degree Days 2 (Base 50)    
Moisture  
Dew Point 31 °F    
Average Humidity 53    
Maximum Humidity 81    
Minimum Humidity 20    
Precipitation  
Precipitation 0.00 in - - ()
Sea Level Pressure  
Sea Level Pressure 30.20 in    
Wind  
Wind Speed 3 mph (NNE)    
Max Wind Speed 9 mph    
Max Gust Speed -    
Visibility 10 miles    
Events      
Averages and records for this station are not official NWS values.
T = Trace of Precipitation, MM = Missing Value Source: NWS Daily Summary

Daily Weather History Graph

Daily Weather History Graph

Search for Another Location

Airport or City:

Trip Planner

Search our weather history database for the weather conditions in past years. The results will help you decide how hot, cold, wet, or windy it might be!

Date:

Astronomy

Nov. 04, 2011 Rise Set
Actual Time 7:37 AM CDT 6:35 PM CDT
Civil Twilight 7:13 AM CDT 7:00 PM CDT
Nautical Twilight 6:45 AM CDT 7:28 PM CDT
Astronomical Twilight 6:17 AM CDT 7:56 PM CDT
Moon 3:04 PM CDT (11/4) 2:17 AM CDT (11/4)
Length of Visible Light 11h 46m
Length of Day
10h 57m
Waxing Gibbous, 69% of the Moon is Illuminated
Nov 4
Waxing Gibbous
Nov 10
Full
Nov 18
Last Quarter
Nov 25
New
Dec 2
First Quarter

Hourly Weather History & Observations

Time (CDT) Temp. Windchill Dew Point Humidity Pressure Visibility Wind Dir Wind Speed Gust Speed Precip Events Conditions
12:15 AM 41.9 °F 40.0 °F 28.2 °F 58% 30.26 in 10.0 mi WNW 3.5 mph - N/A   Unknown
12:35 AM 41.7 °F - 27.7 °F 58% 30.26 in 10.0 mi Calm Calm - N/A   Unknown
12:55 AM 41.0 °F 39.0 °F 28.4 °F 61% 30.25 in 10.0 mi NW 3.5 mph - N/A   Unknown
1:15 AM 39.7 °F 37.6 °F 28.0 °F 63% 30.25 in 10.0 mi NW 3.5 mph - N/A   Unknown
1:35 AM 40.1 °F - 27.7 °F 61% 30.25 in 10.0 mi Calm Calm - N/A   Unknown
1:55 AM 38.7 °F - 28.4 °F 67% 30.25 in 10.0 mi Calm Calm - N/A   Unknown
2:15 AM 39.4 °F - 28.2 °F 64% 30.25 in 10.0 mi Calm Calm - N/A   Unknown
2:35 AM 39.9 °F 37.8 °F 28.2 °F 63% 30.25 in 10.0 mi NNW 3.5 mph - N/A   Unknown
2:55 AM 35.6 °F - 28.4 °F 75% 30.24 in 10.0 mi Calm Calm - N/A   Unknown
3:35 AM 36.1 °F - 29.7 °F 77% 30.24 in 10.0 mi Calm Calm - N/A   Unknown
3:55 AM 37.6 °F - 28.9 °F 71% 30.24 in 10.0 mi Calm Calm - N/A   Unknown
4:15 AM 37.8 °F - 28.6 °F 69% 30.24 in 10.0 mi Calm Calm - N/A   Unknown
4:35 AM 36.3 °F 33.7 °F 28.8 °F 74% 30.23 in 10.0 mi NNW 3.5 mph - N/A   Unknown
4:55 AM 35.2 °F 31.2 °F 28.4 °F 76% 30.22 in 10.0 mi North 4.6 mph - N/A   Unknown
5:15 AM 35.2 °F 31.2 °F 28.8 °F 77% 30.22 in 10.0 mi North 4.6 mph - N/A   Unknown
5:35 AM 37.4 °F 34.9 °F 28.4 °F 70% 30.23 in 10.0 mi NNW 3.5 mph - N/A   Unknown
5:55 AM 38.7 °F - 27.7 °F 65% 30.23 in 10.0 mi Calm Calm - N/A   Unknown
6:15 AM 36.0 °F 33.3 °F 28.2 °F 73% 30.24 in 10.0 mi WNW 3.5 mph - N/A   Unknown
6:35 AM 35.6 °F 32.8 °F 30.2 °F 81% 30.24 in 10.0 mi NW 3.5 mph - N/A   Unknown
6:55 AM 36.9 °F 34.3 °F 28.8 °F 72% 30.24 in 10.0 mi NW 3.5 mph - N/A   Unknown
7:15 AM 36.1 °F - 28.2 °F 73% 30.24 in 10.0 mi Calm Calm - N/A   Unknown
7:35 AM 35.4 °F 32.6 °F 28.2 °F 75% 30.24 in 10.0 mi NNW 3.5 mph - N/A   Unknown
7:55 AM 35.4 °F 32.6 °F 28.4 °F 76% 30.24 in 10.0 mi NW 3.5 mph - N/A   Unknown
8:15 AM 36.3 °F - 28.8 °F 74% 30.25 in 10.0 mi Calm Calm - N/A   Unknown
8:35 AM 37.8 °F - 30.0 °F 74% 30.25 in 10.0 mi Calm Calm - N/A   Unknown
8:55 AM 39.7 °F - 31.5 °F 72% 30.26 in 10.0 mi Calm Calm - N/A   Unknown
9:15 AM 43.2 °F 40.5 °F 32.4 °F 66% 30.26 in 10.0 mi NNW 4.6 mph - N/A   Unknown
9:35 AM 47.7 °F - 32.2 °F 55% 30.26 in 10.0 mi North 6.9 mph - N/A   Unknown
9:55 AM 51.4 °F - 31.5 °F 46% 30.26 in 10.0 mi North 4.6 mph - N/A   Unknown
10:15 AM 53.6 °F - 32.0 °F 44% 30.26 in 10.0 mi NNE 5.8 mph - N/A   Unknown
10:35 AM 56.3 °F - 30.7 °F 38% 30.26 in 10.0 mi NNE 5.8 mph - N/A   Unknown
10:55 AM 57.7 °F - 30.2 °F 35% 30.25 in 10.0 mi NNE 5.8 mph - N/A   Unknown
11:15 AM 59.7 °F - 29.5 °F 32% 30.25 in 10.0 mi NE 5.8 mph - N/A   Unknown
11:35 AM 60.8 °F - 28.0 °F 29% 30.24 in 10.0 mi NE 8.1 mph - N/A   Unknown
11:55 AM 61.9 °F - 28.4 °F 28% 30.24 in 10.0 mi NE 6.9 mph - N/A   Unknown
12:15 PM 62.4 °F - 28.2 °F 27% 30.23 in 10.0 mi East 5.8 mph - N/A   Unknown
12:35 PM 63.7 °F - 28.0 °F 26% 30.22 in 10.0 mi NNE 4.6 mph - N/A   Unknown
1:15 PM 64.8 °F - 25.9 °F 23% 30.20 in 10.0 mi NNE 3.5 mph - N/A   Unknown
1:35 PM 65.7 °F - 26.1 °F 22% 30.19 in 10.0 mi NNE 5.8 mph - N/A   Unknown
1:55 PM 66.4 °F - 27.0 °F 23% 30.17 in 10.0 mi Calm Calm - N/A   Unknown
2:15 PM 66.2 °F - 26.6 °F 23% 30.16 in 10.0 mi North 5.8 mph - N/A   Unknown
2:35 PM 67.3 °F - 26.4 °F 22% 30.15 in 10.0 mi East 5.8 mph - N/A   Unknown
3:15 PM 68.2 °F - 27.0 °F 21% 30.14 in 10.0 mi Calm Calm - N/A   Unknown
3:35 PM 68.5 °F - 26.4 °F 21% 30.13 in 10.0 mi Calm Calm - N/A   Unknown
3:55 PM 68.7 °F - 26.8 °F 21% 30.12 in 10.0 mi East 3.5 mph - N/A   Unknown
4:15 PM 69.8 °F - 28.4 °F 21% 30.11 in 10.0 mi ENE 6.9 mph - N/A   Unknown
4:35 PM 69.4 °F - 26.8 °F 20% 30.11 in 10.0 mi NE 3.5 mph - N/A   Unknown
4:55 PM 69.1 °F - 26.1 °F 20% 30.11 in 10.0 mi East 4.6 mph - N/A   Unknown
5:15 PM 67.6 °F - 33.1 °F 28% 30.11 in 10.0 mi SSE 6.9 mph - N/A   Unknown
5:35 PM 65.8 °F - 35.4 °F 32% 30.11 in 10.0 mi SSE 8.1 mph - N/A   Unknown
5:55 PM 64.6 °F - 36.5 °F 35% 30.11 in 10.0 mi SSE 9.2 mph - N/A   Unknown
6:15 PM 62.8 °F - 37.8 °F 40% 30.11 in 10.0 mi SSE 5.8 mph - N/A   Unknown
6:35 PM 59.7 °F - 39.6 °F 47% 30.12 in 10.0 mi SSE 4.6 mph - N/A   Unknown
6:55 PM 57.0 °F - 40.1 °F 53% 30.12 in 10.0 mi SSE 4.6 mph - N/A   Unknown
7:15 PM 55.9 °F - 40.3 °F 56% 30.12 in 10.0 mi SSE 3.5 mph - N/A   Unknown
7:35 PM 54.1 °F - 40.3 °F 59% 30.12 in 10.0 mi Calm Calm - N/A   Unknown
7:55 PM 51.6 °F - 40.3 °F 65% 30.12 in 10.0 mi SSE 3.5 mph - N/A   Unknown
8:15 PM 51.3 °F - 40.3 °F 66% 30.12 in 10.0 mi Calm Calm - N/A   Unknown
8:35 PM 51.1 °F - 40.3 °F 67% 30.12 in 10.0 mi Calm Calm - N/A   Unknown
8:55 PM 48.0 °F - 39.4 °F 72% 30.12 in 10.0 mi Calm Calm - N/A   Unknown
9:15 PM 46.2 °F - 39.7 °F 78% 30.12 in 10.0 mi Calm Calm - N/A   Unknown
9:35 PM 45.1 °F - 39.6 °F 81% 30.12 in 10.0 mi Calm Calm - N/A   Unknown
9:55 PM 45.0 °F - 40.1 °F 83% 30.12 in 10.0 mi Calm Calm - N/A   Unknown
10:15 PM 44.2 °F - 39.7 °F 84% 30.13 in 10.0 mi Calm Calm - N/A   Unknown
10:35 PM 43.9 °F - 39.6 °F 85% 30.13 in 10.0 mi Calm Calm - N/A   Unknown
10:55 PM 43.9 °F - 38.8 °F 82% 30.14 in 10.0 mi Calm Calm - N/A   Unknown
11:15 PM 43.7 °F - 38.7 °F 82% 30.14 in 10.0 mi Calm Calm - N/A   Unknown